| time (UTC) | temp F | wind direction | speed knots | gust knots | rain 1hr in | rain 24hr in | rain mn in | humidity % | barometer mb |
| 20260510164532 | 79 | 99 | 3.5 | 7.0 | 0.00 | 0.04 | 0.01 | 71 | 1017.2 |
| 20260510163027 | 78 | 72 | 2.6 | 7.0 | 0.00 | 0.04 | 0.01 | 73 | 1017.4 |
| 20260510161528 | 77 | 79 | 2.6 | 8.7 | 0.00 | 0.04 | 0.01 | 75 | 1017.3 |
| 20260510160015 | 77 | 86 | 4.3 | 8.7 | 0.00 | 0.04 | 0.01 | 77 | 1017.0 |
| 20260510154522 | 76 | 127 | 5.2 | 9.6 | 0.00 | 0.04 | 0.01 | 78 | 1016.9 |
| 20260510153035 | 75 | 82 | 6.1 | 11.3 | 0.00 | 0.04 | 0.01 | 80 | 1017.0 |
| 20260510151527 | 74 | 107 | 7.0 | 11.3 | 0.00 | 0.04 | 0.01 | 81 | 1016.9 |
| 20260510150028 | 72 | 104 | 3.5 | 7.0 | 0.00 | 0.04 | 0.01 | 85 | 1017.1 |
| 20260510144528 | 71 | 70 | 4.3 | 8.7 | 0.00 | 0.04 | 0.01 | 87 | 1017.3 |
| 20260510143019 | 71 | 36 | 3.5 | 7.8 | 0.00 | 0.04 | 0.01 | 89 | 1017.3 |
| 20260510141524 | 70 | 81 | 5.2 | 8.7 | 0.00 | 0.04 | 0.01 | 91 | 1017.1 |
| 20260510140008 | 69 | 83 | 3.5 | 7.8 | 0.01 | 0.04 | 0.01 | 92 | 1017.2 |
| 20260510134514 | 69 | 82 | 3.5 | 7.0 | 0.01 | 0.04 | 0.01 | 93 | 1017.0 |
| 20260510133020 | 69 | 73 | 4.3 | 8.7 | 0.01 | 0.13 | 0.01 | 93 | 1016.7 |
| 20260510131522 | 67 | 76 | 6.1 | 8.7 | 0.01 | 0.61 | 0.01 | 93 | 1016.6 |
| 20260510130024 | 67 | 79 | 2.6 | 7.0 | 0.00 | 0.72 | 0.00 | 93 | 1016.4 |
| 20260510124510 | 66 | 71 | 2.6 | 5.2 | 0.00 | 0.72 | 0.00 | 93 | 1016.2 |
| 20260510123016 | 66 | 51 | 1.7 | 6.1 | 0.00 | 0.73 | 0.00 | 93 | 1016.1 |
| 20260510121520 | 65 | 36 | 1.7 | 6.1 | 0.00 | 0.73 | 0.00 | 93 | 1016.0 |
| 20260510120023 | 65 | 70 | 2.6 | 5.2 | 0.00 | 0.73 | 0.00 | 93 | 1015.8 |
| 20260510114530 | 65 | 82 | 4.3 | 6.1 | 0.00 | 0.73 | 0.00 | 93 | 1015.5 |
| 20260510113020 | 65 | 74 | 3.5 | 5.2 | 0.00 | 0.73 | 0.00 | 93 | 1015.1 |
| 20260510111518 | 65 | 74 | 4.3 | 7.0 | 0.00 | 0.73 | 0.00 | 93 | 1014.8 |
| 20260510110034 | 65 | 91 | 4.3 | 7.0 | 0.00 | 0.73 | 0.00 | 93 | 1014.5 |
| 20260510104526 | 65 | 123 | 3.5 | 6.1 | 0.00 | 0.73 | 0.00 | 93 | 1014.3 |
| 20260510103032 | 65 | 61 | 1.7 | 7.0 | 0.00 | 0.73 | 0.00 | 93 | 1013.9 |
| 20260510101518 | 65 | 55 | 2.6 | 7.0 | 0.00 | 0.73 | 0.00 | 93 | 1013.7 |
| 20260510100020 | 65 | 58 | 2.6 | 5.2 | 0.00 | 0.73 | 0.00 | 93 | 1013.6 |
| 20260510094524 | 65 | 25 | 2.6 | 5.2 | 0.00 | 0.73 | 0.00 | 93 | 1013.6 |
| 20260510093028 | 65 | 34 | 4.3 | 7.8 | 0.00 | 0.73 | 0.00 | 93 | 1013.5 |
| 20260510091530 | 65 | 31 | 4.3 | 7.0 | 0.00 | 0.73 | 0.00 | 93 | 1013.5 |
| 20260510090017 | 65 | 45 | 2.6 | 5.2 | 0.00 | 0.73 | 0.00 | 93 | 1013.3 |
| 20260510084524 | 66 | 58 | 1.7 | 4.3 | 0.00 | 0.73 | 0.00 | 93 | 1013.2 |
| 20260510083035 | 66 | 56 | 0.9 | 4.3 | 0.00 | 0.73 | 0.00 | 93 | 1013.2 |
| 20260510081528 | 66 | 45 | 1.7 | 3.5 | 0.00 | 0.73 | 0.00 | 93 | 1013.2 |
| 20260510080027 | 66 | 20 | 4.3 | 7.0 | 0.00 | 0.73 | 0.00 | 93 | 1013.3 |
| 20260510074520 | 66 | 30 | 1.7 | 7.8 | 0.00 | 0.73 | 0.00 | 93 | 1013.0 |
| 20260510073029 | 66 | 50 | 3.5 | 7.8 | 0.00 | 0.73 | 0.00 | 93 | 1012.9 |
| 20260510071540 | 66 | 29 | 2.6 | 7.0 | 0.00 | 0.73 | 0.00 | 92 | 1013.0 |
| 20260510070031 | 66 | 37 | 3.5 | 6.1 | 0.00 | 0.73 | 0.00 | 92 | 1013.1 |
| 20260510064524 | 67 | 27 | 3.5 | 6.1 | 0.00 | 0.73 | 0.00 | 92 | 1013.0 |
| 20260510063020 | 67 | 38 | 2.6 | 6.1 | 0.00 | 0.73 | 0.00 | 92 | 1013.0 |
| 20260510061525 | 67 | 36 | 2.6 | 4.3 | 0.00 | 0.73 | 0.00 | 92 | 1013.3 |
| 20260510060033 | 67 | 29 | 1.7 | 3.5 | 0.00 | 0.73 | 0.00 | 92 | 1013.1 |
| 20260510054528 | 67 | 65 | 2.6 | 3.5 | 0.00 | 0.73 | 0.00 | 92 | 1013.2 |
| 20260510053019 | 67 | 86 | 2.6 | 3.5 | 0.00 | 0.73 | 0.00 | 92 | 1013.2 |
| 20260510051533 | 67 | 83 | 2.6 | 3.5 | 0.00 | 0.73 | 0.00 | 92 | 1013.3 |
| 20260510050007 | 67 | 89 | 0.0 | 2.6 | 0.00 | 0.73 | 0.00 | 92 | 1013.4 |
| 20260510044519 | 68 | 88 | 0.9 | 2.6 | 0.00 | 0.73 | 0.73 | 91 | 1013.4 |
| 20260510043015 | 68 | 115 | 1.7 | 2.6 | 0.00 | 0.73 | 0.73 | 91 | 1013.4 |
| 20260510041522 | 68 | 109 | 1.7 | 3.5 | 0.00 | 0.73 | 0.73 | 91 | 1013.4 |
| 20260510040026 | 68 | 32 | 2.6 | 4.3 | 0.00 | 0.73 | 0.73 | 90 | 1013.6 |
| 20260510034509 | 69 | 29 | 2.6 | 2.6 | 0.00 | 0.73 | 0.73 | 90 | 1013.9 |
| 20260510033011 | 69 | 153 | 0.0 | 1.7 | 0.01 | 0.73 | 0.73 | 90 | 1013.7 |
| 20260510031517 | 69 | 122 | 0.0 | 1.7 | 0.01 | 0.73 | 0.73 | 90 | 1013.6 |
| 20260510030023 | 69 | 236 | 0.9 | 2.6 | 0.01 | 0.73 | 0.73 | 90 | 1013.8 |
| 20260510024523 | 69 | 205 | 3.5 | 7.0 | 0.01 | 0.73 | 0.73 | 90 | 1013.6 |
| 20260510023008 | 69 | 206 | 3.5 | 7.0 | 0.00 | 0.72 | 0.72 | 91 | 1013.5 |
| 20260510021510 | 69 | 165 | 6.1 | 10.4 | 0.00 | 0.72 | 0.72 | 91 | 1013.1 |
| 20260510020015 | 69 | 193 | 3.5 | 7.8 | 0.00 | 0.72 | 0.72 | 92 | 1012.9 |
| 20260510014523 | 69 | 114 | 3.5 | 7.0 | 0.00 | 0.72 | 0.72 | 92 | 1012.4 |
| 20260510013024 | 70 | 238 | 2.6 | 6.1 | 0.00 | 0.72 | 0.72 | 92 | 1013.1 |
| 20260510011512 | 69 | 158 | 3.5 | 7.8 | 0.00 | 0.72 | 0.72 | 92 | 1012.8 |
| 20260510010013 | 69 | 171 | 4.3 | 6.1 | 0.00 | 0.72 | 0.72 | 92 | 1012.8 |
| 20260510004519 | 69 | 153 | 3.5 | 7.8 | 0.00 | 0.72 | 0.72 | 92 | 1012.6 |
| 20260510003029 | 69 | 200 | 2.6 | 6.1 | 0.00 | 0.72 | 0.72 | 92 | 1012.7 |
| 20260510001527 | 69 | 176 | 1.7 | 4.3 | 0.00 | 0.72 | 0.72 | 92 | 1012.9 |
| 20260510000014 | 69 | 149 | 2.6 | 6.1 | 0.00 | 0.72 | 0.72 | 92 | 1012.5 |
| 20260509234516 | 69 | 181 | 3.5 | 7.0 | 0.00 | 0.72 | 0.72 | 92 | 1013.0 |
| 20260509233028 | 69 | 181 | 4.3 | 7.0 | 0.00 | 0.72 | 0.72 | 92 | 1013.2 |
| 20260509231530 | 69 | 156 | 2.6 | 6.1 | 0.01 | 0.72 | 0.72 | 92 | 1012.8 |
| 20260509230030 | 68 | 219 | 6.1 | 7.0 | 0.02 | 0.72 | 0.72 | 92 | 1012.8 |
| 20260509224529 | 68 | 181 | 1.7 | 2.6 | 0.02 | 0.72 | 0.72 | 92 | 1012.1 |
| 20260509223021 | 68 | 107 | 1.7 | 5.2 | 0.02 | 0.72 | 0.72 | 92 | 1011.6 |
| 20260509221531 | 68 | 127 | 1.7 | 7.8 | 0.01 | 0.71 | 0.71 | 92 | 1012.0 |
| 20260509220024 | 68 | 195 | 5.2 | 7.8 | 0.00 | 0.70 | 0.70 | 92 | 1012.9 |
| 20260509214508 | 68 | 208 | 5.2 | 8.7 | 0.00 | 0.70 | 0.70 | 92 | 1012.6 |
| 20260509213030 | 67 | 193 | 5.2 | 10.4 | 0.00 | 0.70 | 0.70 | 92 | 1011.5 |
| 20260509211519 | 67 | 126 | 4.3 | 8.7 | 0.00 | 0.70 | 0.70 | 92 | 1011.1 |
| 20260509210025 | 68 | 169 | 4.3 | 7.8 | 0.00 | 0.70 | 0.70 | 92 | 1011.1 |
| 20260509204525 | 67 | 178 | 1.7 | 3.5 | 0.00 | 0.70 | 0.70 | 92 | 1011.6 |
| 20260509203033 | 67 | 231 | 2.6 | 4.3 | 0.00 | 0.70 | 0.70 | 92 | 1012.5 |
| 20260509201516 | 67 | 215 | 4.3 | 6.1 | 0.00 | 0.70 | 0.70 | 93 | 1012.8 |
| 20260509200031 | 67 | 124 | 3.5 | 9.6 | 0.00 | 0.70 | 0.70 | 92 | 1012.4 |
| 20260509194525 | 67 | 188 | 2.6 | 7.0 | 0.00 | 0.70 | 0.70 | 92 | 1012.7 |
| 20260509193026 | 67 | 210 | 3.5 | 9.6 | 0.00 | 0.70 | 0.70 | 92 | 1013.5 |
| 20260509191514 | 67 | 217 | 3.5 | 7.8 | 0.00 | 0.70 | 0.70 | 93 | 1013.3 |
| 20260509190042 | 67 | 143 | 2.6 | 5.2 | 0.00 | 0.70 | 0.70 | 93 | 1013.4 |
| 20260509184532 | 67 | 194 | 0.0 | 3.5 | 0.00 | 0.70 | 0.70 | 93 | 1013.0 |
| 20260509183029 | 67 | 141 | 4.3 | 10.4 | 0.00 | 0.70 | 0.70 | 92 | 1012.8 |
| 20260509181511 | 67 | 86 | 4.3 | 9.6 | 0.00 | 0.70 | 0.70 | 93 | 1012.6 |
| 20260509180013 | 67 | 101 | 4.3 | 11.3 | 0.00 | 0.70 | 0.70 | 93 | 1012.8 |
| 20260509174524 | 66 | 121 | 3.5 | 7.0 | 0.00 | 0.70 | 0.70 | 93 | 1013.6 |
| 20260509173023 | 66 | 188 | 3.5 | 10.4 | 0.00 | 0.70 | 0.70 | 93 | 1013.6 |
| 20260509171507 | 65 | 80 | 2.6 | 3.5 | 0.00 | 0.70 | 0.70 | 93 | 1014.0 |
| 20260509170032 | 65 | 114 | 4.3 | 11.3 | 0.00 | 0.70 | 0.70 | 92 | 1013.4 |